Погода в Дарьевке

Россия / Пензенская область     53°51′59″N   45°19′30″E
темп.,
°C
ветер,
м/с
пор.,
м/с
влажн.,
%
обл.,
%
осадки,
мм/ч
давл.,
гПа
погр.,
м
23 октября, сб
сб2300:00+9зюз613765 0.1 1007464
03:00+8юз613780 0.1 1008412
06:00+6юз512825 0.0 1009338
09:00+8зюз612654 0.0 10101011
12:00+11зюз8144520 0.0 10111702
15:00+11зюз611443 0.0 10111523
18:00+8ююз385241 0.0 1011145
21:00+8юз61176100 0.6 1011760
24 октября, вс
вс2400:00+6зюз37867 0.3 1011185
03:00+4зюз39835 0.3 1012234
06:00+3зюз39885 0.0 1012249
09:00+4зюз59797 0.0 1013567
12:00+6з6966100 0.0 10141119
15:00+6зюз4865100 0.0 10141282
18:00+6юз3867100 0.1 1014415
21:00+3з4897100 0.3 1014526
25 октября, пн
пн2500:00+2з378972 0.1 1015315
03:00+2зсз368999 0.1 1015423
06:00+2зсз3898100 0.1 1017383
09:00+2ссз61198100 0.3 1018633
12:00+2с797399 0.1 10211015
15:00+2с7105893 0.1 10231160
18:00+1с510620 0.0 1026432
21:00−1ссз38710 0.0 1028198
26 октября, вт
вт2600:00−2сз2372100 0.0 102981
03:00−2зсз23745 0.0 103066
06:00−2зюз36755 0.0 1030135
09:00+1зюз59576 0.0 1029392
12:00+4зюз694585 0.0 1027724
15:00+5зюз6115061 0.0 1026719
18:00+2зюз6135998 0.0 1026417
21:00+2зюз6136165 0.0 1025385
27 октября, ср
ср2700:00+1юз51263100 0.0 1025331
03:00+1юз5126348 0.0 1024308
06:000юз51164100 0.0 1023293
09:00+2юз61355100 0.0 1023443
12:00+6юз71345100 0.0 1022599
15:00+6юз71442100 0.0 1020721
18:00+5юз71443100 0.0 1020582
21:00+4юз71442100 0.0 1018571